Starlink 32595

operational
NORAD ID: 62037 Int'l Des: 2024-216 Owner: SPXS Country: US Constellation: starlink
LEOCIRCULAR

About Starlink 32595

Description loading...

Live Position

Loading 3D Globe...

Upcoming Passes

Altitude History

Altitude vs Time

uPlot chart will show altitude changes over time

Two-Line Element Set

1 62037U 24216F 25259.44242451 .00020177 00000-0 74117-3 0 9992
2 62037 42.9989 167.5691 0001878 251.7346 108.3301 15.27560537 47152
Epoch: Sep 16, 2025 • Age: 22 hours

Current Status

Altitude 486.4 km
Velocity 7.63 km/s
Sub-Earth Point 38.31°N, 90.14°E
Launch Date Nov 21, 2024
Age 0.8 years
Type internet

Technical Details

Classification Payload
Mass 730.00 kg
Dry Mass 700.00 kg
Total Mass 730.00 kg
Length 0.30 m
Diameter 4.10 m
Span 29.00 m
Shape Box + pan
Manufacturer SPXS
Bus Type Starlink V2M
Phase Status In Orbit
Owner/State SPXS/US

Large Constellations

Loading constellations...